HULIANWANG DIGUI-120

Last updated on Fri Dec 19 2025 00:02:10 GMT+0000 (Coordinated Universal Time)

1 67060U 25295B 25349.71694909 .00000000 00000+0 66896-4 0 9998 2 67060 50.0050 359.6709 0013223 257.2650 102.6786 14.25706335 543
UTC large
Height (km)
Speed (km/s)
/
Latitude / Longitude
Inclination (degrees)
Orbital Period (minutes)
Azimuth
Elevation
Range (km)
Doppler Factor

Next 0 passes for location: London (51.5072 / 0.1276)

Sorry there are no passes over London.